Regional Weather Roundup
Issued by NWS Northern Indiana

Home | Current Version | Previous Version | Text Only | Print | Product List | Glossary Off
Versions: 1 2 3 4 5 6 7 8 9 10 11 12 13 14 15 16 17 18 19 20 21 22 23 24 25 26 27 28 29 30 31 32 33 34 35 36 37 38 39 40 41 42 43 44 45 46 47 48 49 50

000
ASUS43 KIWX 220910
RWRIWX

KIWX WEATHER ROUNDUP
NATIONAL WEATHER SERVICE NORTHERN INDIANA
500 AM EDT FRI AUG 22 2014

NOTE: "FAIR" INDICATES FEW OR NO CLOUDS BELOW 12,000 FEET WITH NO
SIGNIFICANT WEATHER AND/OR OBSTRUCTIONS TO VISIBILITY.

* THESE STATIONS ARE NOT UNDER NWS QUALITY CONTROL. THEY ALSO MAY NOT
  REPORT WEATHER SUCH AS PRECIPITATION OR FOG.

INZ001>027-221000-
NORTHERN INDIANA

CITY           SKY/WX    TMP DP  RH WIND       PRES   REMARKS
GARY*          RAIN      73  72  95 SE5       29.93S
VALPARAISO     LGT RAIN  72  70  93 CALM      29.94F
MICHIGAN CITY* RAIN      72  72 100 SW7       29.92F
LAPORTE*       RAIN      70  70 100 SW3       29.94F
KNOX*          CLOUDY    70  68  92 CALM      29.91F
SOUTH BEND     CLOUDY    73  69  87 SW10      29.94R
GOSHEN         RAIN      73  70  90 S7        29.94R FOG
MONTICELLO*    RAIN      74  73  99 CALM      29.91R
LOGANSPORT*    LGT RAIN  70  68  94 SE3       29.94R
ROCHESTER*     TSTM      73  73 100 N3        29.95S
ANGOLA*        PTCLDY    68  59  73 CALM      29.97R
FORT WAYNE     TSTM      68  68 100 CALM      30.00R VSB 1
HUNTINGTON*    TSTM      72  72  99 NE8       29.97R
PERU/GRISSOM   DRIZZLE   72  72 100 SE8       29.93F
MARION*        LGT RAIN  70  68  92 S5        29.96S

$$
INZ028>050-221000-
CENTRAL INDIANA

CITY           SKY/WX    TMP DP  RH WIND       PRES   REMARKS
LAFAYETTE      LGT RAIN  76  74  93 SW5       29.90S
KOKOMO*        CLOUDY    72  70  94 SE5       29.94R
MUNCIE*        LGT RAIN  72  69  90 NE8       29.98F
INDIANAPOLIS   MOCLDY    75  72  90 SW10      29.94F

$$
MIZ043>046-050>051-056>058-064>065-071>073-077>080-221000-
SOUTHWEST LOWER MICHIGAN

CITY           SKY/WX    TMP DP  RH WIND       PRES   REMARKS
BATTLE CREEK   CLOUDY    72  69  90 E5        29.95R FOG
BENTON HARBOR  MOCLDY    68  67  96 CALM      29.93R
COLDWATER*     FOG       70  68  96 CALM      29.95R VSB 1/2
HILLSDALE*     FOG       69  69 100 CALM      29.97R VSB 1/2
HOLLAND        FOG       70  68  93 CALM      29.93R VSB 1/4
GRAND RAPIDS   MOCLDY    70  70 100 CALM      29.94R FOG
KALAMAZOO      FOG       70  68  93 CALM      29.95R VSB 1/4
STURGIS*         N/A     68  66  94 S3        29.95R FOG
THREE RIVERS*  MOCLDY    69  68  98 CALM      29.95R FOG

$$
OHZ001>008-015>018-024>025-221000-
NORTHWEST OHIO

CITY           SKY/WX    TMP DP  RH WIND       PRES   REMARKS
WAUSEON*       CLOUDY    70  70 100 CALM      29.96R FOG
DEFIANCE       PTCLDY    69  66  90 CALM      29.97R FOG
FINDLAY        CLOUDY    72  70  93 SW3       29.96S FOG
TOLEDO EXPRESS CLOUDY    70  70 100 S6        29.95R
TOLEDO METCALF CLOUDY    72  68  87 S6        29.95S
LIMA           MOCLDY    70  68  93 SE3       29.97S FOG

$$
&&


USA.gov is the U.S. government's official web portal to all federal, state and local government web resources and services.